Home   Weather   Halifax   Past weeks
Flag for Canada

Past Weather in Halifax, Nova Scotia, Canada — Yesterday and Last 2 Weeks

Now
37 °F

Clear.


Feels Like: 30 °F
Forecast: 60 / 38 °F
Wind: 10 mph from Northwest

Location: Halifax International Airport

Current Time: May 23, 2019 at 12:45:35 am

Latest Report: May 23, 2019 at 12:00 am


Visibility: 15 mi

Pressure: 30.18 "Hg

Humidity: 87%

Dew Point: 34 °F

Location of HalifaxLocation

Past Weather in Halifax — Graph

°F

Halifax Temperature Yesterday

Maximum temperature yesterday: 43 °F (at 3:00 pm)
Minimum temperature yesterday: 36 °F (at 12:10 am)
Average temperature yesterday: 40 °F

High & Low Weather Summary for the Past Weeks

 TemperatureHumidityPressure
High61 °F (May 19, 3:00 pm)100% (May 8, 1:00 am)30.36 "Hg (May 8, 1:00 am)
Low32 °F (May 10, 6:00 am)35% (May 8, 1:00 pm)29.39 "Hg (May 21, 4:00 pm)
Average44 °F85%29.86 "Hg
* Reported May 7 11:00 pm — May 22 11:00 pm, Halifax. Weather by CustomWeather, © 2019

Note: Actual official high and low records may vary slightly from our data, if they occured in-between our weather recording intervals... More about our weather records

Advertising

Halifax Weather History for the Previous 24 Hours

Scroll right to see more
 ConditionsComfort  
Time TempWeatherWind HumidityBarometerVisibility
11:00 pm
Wed, May 22
37 °FClear.6 mph81%30.17 "Hg15 mi
10:00 pm39 °FPassing clouds.10 mph81%30.17 "Hg15 mi
9:00 pm41 °FPassing clouds.17 mph76%30.14 "Hg15 mi
8:00 pm43 °FPartly sunny.18 mph71%30.11 "Hg15 mi
7:00 pm43 °FPartly sunny.23 mph71%30.09 "Hg15 mi
6:00 pm43 °FPartly sunny.28 mph71%30.06 "Hg15 mi
5:00 pm43 °FPartly sunny.25 mph76%30.03 "Hg15 mi
4:00 pm43 °FPartly sunny.22 mph81%30.02 "Hg15 mi
3:00 pm43 °FPartly sunny.28 mph81%29.99 "Hg15 mi
2:00 pm41 °FOvercast.22 mph93%29.98 "Hg15 mi
1:39 pm41 °FOvercast.17 mph93%29.97 "Hg15 mi
1:00 pm41 °FDrizzle. Low clouds.26 mph93%29.94 "Hg12 mi
12:00 pm41 °FOvercast.25 mph93%29.90 "Hg15 mi
11:00 am41 °FMostly cloudy.29 mph93%29.85 "Hg12 mi
10:00 am41 °FMostly cloudy.23 mph93%29.82 "Hg12 mi
9:00 am41 °FMostly cloudy.22 mph93%29.78 "Hg10 mi
8:53 am41 °FMostly cloudy.24 mph93%29.77 "Hg10 mi
8:00 am39 °FDrizzle. Mostly cloudy.21 mph100%29.74 "Hg10 mi
7:00 am39 °FDrizzle. Mostly cloudy.22 mph100%29.69 "Hg10 mi
6:00 am41 °FDrizzle. Mostly cloudy.25 mph100%29.64 "Hg8 mi
5:00 am41 °FDrizzle. Fog.21 mph100%29.61 "Hg6 mi
4:40 am41 °FDrizzle. Low clouds.22 mph93%29.59 "Hg10 mi
4:00 am41 °FLow clouds.23 mph93%29.57 "Hg15 mi
3:36 am39 °FOvercast.24 mph100%29.55 "Hg15 mi
3:00 am39 °FSprinkles. Fog.22 mph100%29.53 "Hg6 mi
2:00 am37 °FOvercast.23 mph100%29.50 "Hg15 mi
1:17 am36 °FMostly cloudy.25 mph100%29.48 "Hg15 mi
12:30 am36 °FSprinkles. Low clouds.23 mph100%29.46 "Hg10 mi
12:10 am36 °FSprinkles. Low clouds.22 mph100%29.46 "Hg8 mi
12:00 am37 °FSprinkles. Overcast.23 mph93%29.45 "Hg8 mi
Weather by CustomWeather, © 2019

See weather overview